Back to catalog

CZ-3C DEB

AliveGTO
NORAD 40856·DEBRIS·🇨🇳 China

Launched Feb 24, 2012 from Xichang Satellite Launch Center

Loading…

TLE

StaleSource: Space-Track

Epoch: Sep 11, 2026, 13:42 UTC

1 40856U 12008W   26254.57100551  .00000273  00000-0  44887-2 0  9992
2 40856  21.3567 246.1180 7063061  46.3279 353.8968  2.35375309101231

Track CZ-3C DEB in real time with AllMySat

Download on the App Store